Home > Weather > Reutte > Past weeks

Flag for Austria Past Weather in Reutte, Tyrol, Austria — Yesterday and Last 2 Weeks

Now
74 °F

Mild.


Feels Like: 77 °F
Forecast: 56 / 76 °F
Wind: 6 mph from South

Location: Landeck

Current Time: Jul 30, 2016 at 9:07:18 PM

Latest Report: Jul 30, 2016 at 8:00 PM


Visibility: N/A

Pressure: 29.93 "Hg (27.12 "Hg at 856m altitude)

Humidity: 42%

Dew Point: 50 °F

Location of ReutteLocation

Past Weather in Reutte — Graph

°F

Reutte Temperature Yesterday

Maximum temperature yesterday: 79 °F (at 4:00 PM)
Minimum temperature yesterday: 58 °F (at 6:00 AM)
Average temperature yesterday: 67 °F

High & Low Weather Summary for the Past Weeks

 TemperatureHumidityPressure
High89 °F (Jul 20, 4:00 PM)95% (Jul 28, 5:00 AM)30.40 "Hg (Jul 28, 5:00 AM)
Low44 °F (Jul 16, 6:00 AM)19% (Jul 30, 4:00 PM)29.76 "Hg (Jul 30, 4:00 PM)
Average66 °F70%30.07 "Hg
* Reported Jul 15 7:00 PM — Jul 30 7:00 PM, Reutte, Weather by CustomWeather, © 2016

Note: Actual official high and low records may vary slightly from our data, if they occured in-between our weather recording intervals... More about our weather records

Advertising

Reutte Weather History for the Previous 24 Hours

Scroll right to see more
 ConditionsComfort  
Time TempWeatherWind HumidityBarometerVisibility
7:00 PM
Sat, Jul 30
78 °FWarm.1 mph40%29.82 "HgN/A
6:00 PM84 °FPleasantly warm.1 mph29%29.78 "HgN/A
5:00 PM89 °FHot.1 mph20%29.76 "HgN/A
4:00 PM88 °FHot.2 mph19%29.76 "HgN/A
3:00 PM86 °FPleasantly warm.2 mph35%29.77 "HgN/A
2:00 PM84 °FWarm.2 mph43%29.80 "HgN/A
1:00 PM82 °FWarm.2 mph46%29.83 "HgN/A
12:00 PM78 °FWarm.1 mph51%29.88 "HgN/A
11:00 AM76 °FMild.1 mph53%29.91 "HgN/A
10:00 AM72 °FMild.1 mph59%29.95 "HgN/A
9:00 AM66 °FMild.3 mph67%30.00 "HgN/A
8:00 AM62 °FCool.2 mph79%30.04 "HgN/A
7:00 AM61 °FCool.2 mph80%30.04 "HgN/A
6:00 AM60 °FCool.2 mph85%30.04 "HgN/A
5:00 AM60 °FCool.1 mph86%30.05 "HgN/A
4:00 AM60 °FCool.2 mph86%30.04 "HgN/A
3:00 AM60 °FCool.1 mph88%30.04 "HgN/A
2:00 AM61 °FCool.2 mph87%30.03 "HgN/A
1:00 AM62 °FCool.1 mph86%30.02 "HgN/A
12:00 AM63 °FMild.No wind85%30.01 "HgN/A
11:00 PM
Fri, Jul 29
65 °FMild.1 mph82%29.98 "HgN/A
10:00 PM67 °FMild.1 mph75%29.95 "HgN/A
9:00 PM69 °FMild.1 mph70%29.91 "HgN/A
Weather by CustomWeather, © 2016

See weather overviewHow to use our weather pages